TimeAKDT,TemperatureF,Dew PointF,Humidity,Sea Level PressureIn,VisibilityMPH,Wind Direction,Wind SpeedMPH,Gust SpeedMPH,PrecipitationIn,Events,Conditions,WindDirDegrees,DateUTC
12:53 AM,19.9,16.0,85,29.55,0.2,SSW,5.8,-,0.06,Fog-Snow,Snow,210,2014-03-15 08:53:00
1:53 AM,19.9,16.0,85,29.60,0.2,SW,6.9,-,0.06,Fog-Snow,Snow,220,2014-03-15 09:53:00
2:53 AM,19.0,14.0,81,29.65,0.2,Calm,Calm,-,0.02,Fog-Snow,Snow,0,2014-03-15 10:53:00
3:28 AM,19.4,10.4,68,29.67,3.0,SSW,4.6,-,0.00,Snow,Light Snow,200,2014-03-15 11:28:00
3:53 AM,19.0,10.9,71,29.70,3.0,South,5.8,-,0.00,Snow,Light Snow,190,2014-03-15 11:53:00
4:53 AM,17.1,10.0,74,29.73,6.0,Calm,Calm,-,0.00,Snow,Light Snow,0,2014-03-15 12:53:00
5:53 AM,18.0,14.0,84,29.76,3.0,Calm,Calm,-,0.01,Snow,Light Snow,0,2014-03-15 13:53:00
6:40 AM,17.6,12.2,79,29.77,3.0,South,3.5,-,0.00,Snow,Light Snow,180,2014-03-15 14:40:00
6:53 AM,18.0,12.9,81,29.78,3.0,South,5.8,-,0.00,Snow,Light Snow,180,2014-03-15 14:53:00
7:00 AM,17.6,12.2,79,29.77,2.0,South,3.5,-,0.00,Snow,Light Snow,180,2014-03-15 15:00:00
7:53 AM,17.1,12.9,84,29.78,2.0,Calm,Calm,-,0.00,Snow,Light Snow,0,2014-03-15 15:53:00
8:47 AM,17.6,12.2,79,29.78,0.8,Calm,Calm,-,0.00,Snow,Light Snow,0,2014-03-15 16:47:00
8:49 AM,17.6,12.2,79,29.78,0.5,Calm,Calm,-,0.00,Snow,Light Snow,0,2014-03-15 16:49:00
8:53 AM,18.0,12.9,81,29.80,0.2,Calm,Calm,-,0.01,Snow,Light Snow,0,2014-03-15 16:53:00
9:14 AM,15.8,12.2,86,29.78,2.0,Calm,Calm,-,0.00,Snow,Light Snow,0,2014-03-15 17:14:00
9:22 AM,15.8,12.2,86,29.78,10.0,East,4.6,-,0.00,Snow,Light Snow,90,2014-03-15 17:22:00
9:53 AM,16.0,12.0,84,29.79,10.0,East,3.5,-,0.00,Snow,Light Snow,100,2014-03-15 17:53:00
10:53 AM,18.0,12.9,81,29.79,9.0,Calm,Calm,-,0.00,Snow,Light Snow,0,2014-03-15 18:53:00
11:18 AM,19.4,12.2,74,29.78,10.0,Calm,Calm,-,0.00,,Scattered Clouds,0,2014-03-15 19:18:00
11:53 AM,21.0,10.9,65,29.79,10.0,NE,3.5,-,0.00,,Partly Cloudy,40,2014-03-15 19:53:00
12:53 PM,23.0,10.9,60,29.78,10.0,NE,4.6,-,N/A,,Clear,40,2014-03-15 20:53:00
1:53 PM,24.1,10.0,55,29.77,10.0,NNE,5.8,-,N/A,,Partly Cloudy,30,2014-03-15 21:53:00
2:53 PM,25.0,9.0,51,29.76,10.0,North,3.5,-,N/A,,Clear,350,2014-03-15 22:53:00
3:53 PM,26.1,6.1,43,29.73,10.0,NE,4.6,-,N/A,,Clear,40,2014-03-15 23:53:00
4:53 PM,26.1,8.1,47,29.72,10.0,NNE,5.8,-,N/A,,Clear,30,2014-03-16 00:53:00
5:53 PM,25.0,9.0,51,29.70,10.0,North,6.9,-,N/A,,Scattered Clouds,350,2014-03-16 01:53:00
6:53 PM,25.0,9.0,51,29.69,10.0,North,3.5,-,N/A,,Overcast,350,2014-03-16 02:53:00
7:53 PM,23.0,10.9,60,29.68,10.0,Calm,Calm,-,N/A,,Overcast,0,2014-03-16 03:53:00
8:53 PM,19.9,10.0,65,29.68,10.0,WNW,3.5,-,N/A,,Partly Cloudy,290,2014-03-16 04:53:00
9:53 PM,14.0,9.0,80,29.68,10.0,Calm,Calm,-,N/A,,Scattered Clouds,0,2014-03-16 05:53:00
10:53 PM,12.0,7.0,80,29.68,10.0,Calm,Calm,-,N/A,,Scattered Clouds,0,2014-03-16 06:53:00
11:53 PM,12.0,7.0,80,29.68,10.0,ESE,3.5,-,N/A,,Scattered Clouds,110,2014-03-16 07:53:00